THORAD AGENA D DEB, 4752

Orbit data source: Space-Track

THORAD AGENA D DEB, 4752 is space debris in SSO originally from a launch on Wed, 08 Apr 1970 UTC launched from the Air Force Western Test Range (AFWTR). Debris objects in space refer to the collection of defunct objects orbiting the Earth. Examples of debris include non-operational satellites, rocket bodies, and fragments generated from explosions, collisions, or faulty payload assembly.

Loading next visibility...
Identifier
4752, 1970-025DA
Orbit
SSO
Country
Flag of USUS
Related business
Manufacturer
Unknown
Mission
Spacecraft
Bus & Motor
Unknown
Mass
Unknown
Launch date (UTC)
1970-04-08 (56 years ago)
Launch vehicle
Unknown
Launch site
Air Force Western Test Range (AFWTR)
Object type
Payload
Rocket body
Debris
Shape & HBR
Unknown shape, 0.2 m
Radar Cross Section
Small (<0.1 m²)

Expand to show TLE details & history
Last TLE update: 13 hours ago

TLE from 13 hours ago
0 THORAD AGENA D DEB
1 04752U 70025DA  26037.29812881  .00004574  00000-0  23263-2 0  9997
2 04752  99.8712 168.9593 0018944  92.3367 267.9973 14.16326768815543
Epoch: 2026-02-06T07:09Z
TLE epoch observation values (Epoch: 2026-02-06T07:09:18.329Z)
Latitude
0.00001°
Longitude
-74.80509°
Altitude
841.176 km
Speed
7.432 km/s
True Right ascension
11h 15m 50s
True Declination
0° 00' 00"
Sunlit
Object was in full shadow at epoch
Visualization orbit readout
Latitude
Unknown
Longitude
Unknown
Altitude
Unknown
Speed
Unknown
Apparent Right ascension
Unknown
Apparent Declination
Unknown
Sunlit
N/A
Visualization observer readout
Local Sidereal Time
22:41:56
Azimuth
Unknown
Elevation
Unknown
Doppler factor
Unknown
Orbital elements
Apogee altitude
848.689 km
Perigee altitude
821.36 km
Semi-major axis
7,213.162 km
Eccentricity
0.00189
Inclination
99.8712°
RAAN
168.9593°
Arg. of periapsis
92.3367°
True anomaly
267.78037°
Mean anomaly
267.9973°
Eccentric anomaly
267.88883°
Mean motion
3.54287 °/min
Orbital period
101.61 mins
BSTAR
0.0023263
Loading maneuver chart data...
Computing Atmospheric mass density...

Documentation

Showing up to 5 results
|